Location: Tauranga
(37.6860°S, 176.1670°E)
Time: 01:44:26
(UTC+13:00)

Cosmos 1655 Rocket - Pass Details

Date: 24 January 2019
Orbit: 971 x 1006 km, 82.9° (Epoch: 22 February)

Event Time Altitude Azimuth Distance (km) Brightness Sun altitude
Rises 20:56:28 0° 353° (N) 3,699 6.8 -4.7°
Reaches altitude 10° 20:58:58 10° 352° (N) 2,752 6.2 -5.1°
Maximum altitude 21:05:19 83° 264° (W) 1,006 4.2 -6.2°
Drops below altitude 10° 21:11:40 10° 175° (S) 2,762 6.7 -7.3°
Sets 21:14:12 0° 174° (S) 3,712 7.4 -7.7°
